Home   Weather   Bratislava   Past weeks

Flag for Slovakia Past Weather in Bratislava, Slovakia — Yesterday and Last 2 Weeks

Now
54 °F

Passing clouds.


Feels Like: 48 °F
Forecast: 39 / 48 °F
Wind: 20 mph from West

Location: Bratislava Ivanka

Current Time: Feb 23, 2017 at 3:51:08 am

Latest Report: Feb 23, 2017 at 3:30 am


Visibility: N/A

Pressure: 29.74 "Hg

Humidity: 63%

Dew Point: 41 °F

Location of BratislavaLocation

Past Weather in Bratislava — Graph

°F

Bratislava Temperature Yesterday

Maximum temperature yesterday: 55 °F (at 5:00 pm)
Minimum temperature yesterday: 39 °F (at 6:00 am)
Average temperature yesterday: 48 °F

High & Low Weather Summary for the Past Weeks

 TemperatureHumidityPressure
High55 °F (Feb 22, 5:00 pm)100% (Feb 15, 1:00 am)30.60 "Hg (Feb 15, 1:00 am)
Low23 °F (Feb 14, 4:30 am)56% (Feb 12, 1:30 pm)29.71 "Hg (Feb 22, 11:00 pm)
Average35 °F84%30.31 "Hg
* Reported Feb 8 2:00 am — Feb 23 2:30 am, Bratislava, Weather by CustomWeather, © 2017

Note: Actual official high and low records may vary slightly from our data, if they occured in-between our weather recording intervals... More about our weather records

Advertising

Bratislava Weather History for the Previous 24 Hours

Scroll right to see more
 ConditionsComfort  
Time TempWeatherWind HumidityBarometerVisibility
2:30 am
Thu, Feb 23
54 °FClear.20 mph63%29.74 "Hg10 mi
2:00 am54 °FClear.23 mph63%29.74 "Hg10 mi
1:30 am55 °FPassing clouds.23 mph59%29.74 "HgN/A
1:00 am55 °FPassing clouds.24 mph59%29.74 "HgN/A
12:31 am55 °FClear.22 mph59%29.74 "Hg10 mi
12:00 am55 °FClear.21 mph59%29.74 "Hg10 mi
11:30 pm
Wed, Feb 22
55 °FClear.24 mph59%29.71 "Hg10 mi
11:00 pm55 °FClear.24 mph59%29.71 "Hg10 mi
10:30 pm54 °FClear.20 mph63%29.74 "Hg10 mi
10:00 pm52 °FClear.12 mph67%29.74 "Hg10 mi
9:30 pm52 °FClear.10 mph67%29.77 "Hg10 mi
9:00 pm50 °FPassing clouds.10 mph71%29.77 "HgN/A
8:30 pm48 °FClear.10 mph82%29.77 "Hg10 mi
8:00 pm50 °FPassing clouds.9 mph76%29.77 "HgN/A
7:30 pm50 °FPassing clouds.9 mph76%29.77 "HgN/A
7:00 pm52 °FPassing clouds.9 mph72%29.80 "HgN/A
6:30 pm54 °FLight rain. Passing clouds.12 mph67%29.80 "HgN/A
6:00 pm55 °FLight rain. Passing clouds.20 mph63%29.80 "HgN/A
5:30 pm55 °FLight rain. Partly cloudy.20 mph63%29.77 "HgN/A
5:00 pm55 °FPassing clouds.9 mph67%29.77 "HgN/A
4:30 pm50 °FLight rain. Clear.12 mph82%29.77 "HgN/A
4:00 pm52 °FSunny.12 mph77%29.77 "Hg10 mi
3:30 pm54 °FSunny.9 mph77%29.80 "Hg10 mi
3:00 pm52 °FSunny.10 mph82%29.80 "Hg10 mi
2:30 pm52 °FSunny.10 mph82%29.80 "Hg10 mi
2:00 pm52 °FSunny.12 mph77%29.83 "Hg10 mi
1:30 pm52 °FSunny.12 mph77%29.83 "Hg10 mi
1:00 pm52 °FSunny.14 mph77%29.83 "Hg10 mi
12:30 pm50 °FBroken clouds.15 mph82%29.86 "HgN/A
12:00 pm48 °FMostly cloudy.14 mph87%29.86 "HgN/A
11:30 am48 °FLight rain. Mostly cloudy.13 mph87%29.89 "HgN/A
11:00 am46 °FLight rain. Mostly cloudy.14 mph93%29.89 "Hg4 mi
10:30 am46 °FLight rain. Partly sunny.15 mph87%29.89 "Hg5 mi
10:00 am46 °FLight rain. Partly sunny.12 mph87%29.92 "Hg6 mi
9:30 am46 °FLight rain. Partly sunny.13 mph87%29.92 "Hg6 mi
9:00 am45 °FLight rain. Partly sunny.9 mph100%29.92 "Hg5 mi
8:30 am45 °FLight rain. Fog.9 mph93%29.92 "Hg3 mi
8:00 am43 °FLight rain. Partly sunny.9 mph93%29.95 "Hg4 mi
7:30 am41 °FLight rain. Partly sunny.8 mph93%29.95 "Hg4 mi
7:00 am41 °FLight rain. Fog.8 mph93%29.95 "HgN/A
6:30 am39 °FLight rain. Fog.6 mph93%29.95 "HgN/A
6:00 am39 °FLight rain. Passing clouds.5 mph93%29.95 "HgN/A
5:30 am43 °FPassing clouds.6 mph87%29.95 "HgN/A
5:00 am43 °FPassing clouds.5 mph87%29.95 "HgN/A
4:30 am41 °FClear.8 mph87%29.98 "Hg10 mi
4:00 am41 °FClear.6 mph93%29.98 "Hg10 mi
3:30 am41 °FPassing clouds.6 mph87%29.98 "HgN/A
3:00 am41 °FPassing clouds.6 mph87%29.98 "HgN/A
Weather by CustomWeather, © 2017

See weather overviewHow to use our weather pages